This demonstration page uses our WeatherBlox Daily Observations layout. Learn more.

Left ArrowRight Arrow

41.12389, -100.76542

Hourly Observations for September 6, 2020

Temp ( °F °C ) Dew Point ( °F °C ) Humidity (%) Winds ( mph kmh ) Pressure ( in mb ) Visibility ( mi km ) Precip ( " mm )
12:53 am 00:53 Clear 80 26.7 55 12.8 42 42 S 15 24 29.86 1011 10 16 0.00 0.00
1:53 am 01:53 Clear 77 25 54 12.2 45 45 S 14 22 29.84 1010 10 16 0.00 0.00
2:53 am 02:53 Clear 77 25 54 12.2 45 45 SSW 13 20 29.80 1009 10 16 0.00 0.00
3:53 am 03:53 Clear 76 24.4 54 12.2 47 47 SSW 12 19 29.81 1010 10 16 0.00 0.00
4:53 am 04:53 Clear 69 20.6 54 12.2 59 59 SSW 3 6 29.80 1009 10 16 0.00 0.00
5:53 am 05:53 Clear 62 16.7 53 11.7 73 73 Calm 29.79 1009 10 16 0.00 0.00
6:53 am 06:53 Clear 66 18.9 54 12.2 65 65 SSW 6 9 29.78 1008 10 16 0.00 0.00
7:53 am 07:53 Sunny 57 13.9 52 11.1 83 83 Calm 29.80 1009 10 16 0.00 0.00
8:53 am 08:53 Sunny 67 19.4 53 11.7 61 61 WNW 6 9 29.81 1010 10 16 0.00 0.00
9:53 am 09:53 Sunny 72 22.2 53 11.7 52 52 WNW 5 7 29.80 1009 10 16 0.00 0.00
10:53 am 10:53 Sunny 88 31.1 50 10 27 27 NNE 17 28 29.80 1009 10 16 0.00 0.00
11:53 am 11:53 Sunny 90 32.2 49 9.4 24 24 NE 15 24 29.83 1010 10 16 0.00 0.00
12:53 pm 12:53 Sunny 94 34.4 47 8.3 20 20 ENE 17 28 29.83 1010 10 16 0.00 0.00
1:53 pm 13:53 Sunny 94 34.4 48 8.9 21 21 NE 16 26 29.84 1011 10 16 0.00 0.00
2:53 pm 14:53 Sunny 96 35.6 48 8.9 19 19 NNE 16 26 29.83 1010 10 16 0.00 0.00
3:53 pm 15:53 Sunny 94 34.4 48 8.9 21 21 NNE 9 15 29.85 1011 10 16 0.00 0.00
4:53 pm 16:53 Sunny 94 34.4 48 8.9 21 21 NNE 9 15 29.85 1011 10 16 0.00 0.00
5:53 pm 17:53 Sunny 93 33.9 49 9.4 22 22 ENE 10 17 29.85 1011 10 16 0.00 0.00
6:53 pm 18:53 Sunny 89 31.7 49 9.4 25 25 ENE 8 13 29.85 1011 10 16 0.00 0.00
7:53 pm 19:53 Sunny 80 26.7 49 9.4 34 34 ENE 7 11 29.89 1012 10 16 0.00 0.00
8:53 pm 20:53 Clear 73 22.8 48 8.9 41 41 ENE 8 13 29.88 1012 10 16 0.00 0.00
9:53 pm 21:53 Clear 74 23.3 48 8.9 40 40 E 6 9 29.90 1012 10 16 0.00 0.00
10:53 pm 22:53 Clear 68 20 49 9.4 51 51 ESE 7 11 29.90 1013 10 16 0.00 0.00
11:53 pm 23:53 Clear 64 17.8 48 8.9 56 56 Calm 29.91 1013 10 16 0.00 0.00

Powered by AerisWeather